CW8593 Gava ES current weather conditions

sailwx.info

Wind from 102

Air temperature 21.1° C
Dewpoint 13.0° C

Last reported at 2019-Sep-16 21:58 UTC.
Time now 2019-Sep-16 22:24 UTC

Location: N 41°18' E 001°60'.
View on Google Maps.

See reports from other nearby stations

  
Tides and Currents Weather Stations Pressure Air Temp Water Temp Dewpoint Dewpoint Depression Visibility Wind Speed Wind Dir Waves Ship Positions
date/time (UTC)wind fromknots sea level pressurealtimeterstation pressurevisibilityair tempwater tempwave heightnotes
2019-Sep-16 22:07 102 21.1
2019-Sep-16 21:58 102 21.1
2019-Sep-16 21:49 102 21.1
2019-Sep-16 21:40 102 21.7
2019-Sep-16 21:31 21.1
2019-Sep-16 21:22 102 21.7
2019-Sep-16 21:13 102 21.7
2019-Sep-16 21:04 102 0 gusting 2 21.7
2019-Sep-16 20:55 102 21.7
2019-Sep-16 20:46 102 22.2
2019-Sep-16 20:37 22.2
2019-Sep-16 20:28 22.2
2019-Sep-16 20:19 22.2
2019-Sep-16 20:10 102 22.2
2019-Sep-16 20:01 22.8
2019-Sep-16 19:52 23.3
2019-Sep-16 19:43 23.3
2019-Sep-16 19:34 23.3
2019-Sep-16 19:25 23.3
2019-Sep-16 19:16 23.3
2019-Sep-16 19:07 102 23.3
2019-Sep-16 18:58 102 0 gusting 2 23.3
2019-Sep-16 18:49 102 23.9
2019-Sep-16 18:40 102 25.0
2019-Sep-16 18:31 102 25.0
2019-Sep-16 18:22 102 0 gusting 2 25.0
2019-Sep-16 18:13 102 25.0
2019-Sep-16 18:04 102 25.6
2019-Sep-16 17:55 102 26.1
2019-Sep-16 17:46 102 0 gusting 2 26.1
2019-Sep-16 17:37 102 0 gusting 2 26.1
2019-Sep-16 17:28 102 1 gusting 3 26.1
2019-Sep-16 17:19 102 1 gusting 4 26.1
2019-Sep-16 17:10 094 2 gusting 5 26.1
2019-Sep-16 17:01 089 2 gusting 6 26.1
2019-Sep-16 16:52 094 2 gusting 7 26.1
2019-Sep-16 16:43 087 2 gusting 5 26.1
2019-Sep-16 16:34 091 2 gusting 8 26.1
2019-Sep-16 16:25 102 2 gusting 6 26.1
2019-Sep-16 16:16 105 2 gusting 6 26.1
2019-Sep-16 16:07 101 2 gusting 6 26.1
2019-Sep-16 15:58 102 1 gusting 6 26.1
2019-Sep-16 15:49 112 4 gusting 7 26.1
2019-Sep-16 15:40 099 4 gusting 7 26.1
2019-Sep-16 15:31 101 4 gusting 9 26.1
2019-Sep-16 15:22 109 4 gusting 10 26.7
2019-Sep-16 15:13 115 3 gusting 7 26.7
2019-Sep-16 15:04 106 3 gusting 9 26.7
2019-Sep-16 14:55 089 4 gusting 8 26.7
2019-Sep-16 14:46 097 4 gusting 9 26.7
2019-Sep-16 14:37 101 3 gusting 8 26.7
2019-Sep-16 14:28 088 2 gusting 6 26.7
2019-Sep-16 14:19 064 2 gusting 6 26.7
2019-Sep-16 14:10 089 3 gusting 7 27.2
2019-Sep-16 14:01 097 4 gusting 8 26.1
2019-Sep-16 13:52 093 4 gusting 8 26.7
2019-Sep-16 13:43 090 5 gusting 8 26.7
2019-Sep-16 13:34 097 4 gusting 8 26.1
2019-Sep-16 13:25 081 6 gusting 10 26.1
2019-Sep-16 13:16 093 6 gusting 11 25.6
2019-Sep-16 13:07 103 4 gusting 11 25.6
2019-Sep-16 12:58 084 3 gusting 10 26.1
2019-Sep-16 12:49 059 4 gusting 11 26.1
2019-Sep-16 12:40 075 3 gusting 7 25.6
2019-Sep-16 12:31 055 4 gusting 7 25.6
2019-Sep-16 12:22 068 5 gusting 9 25.0
2019-Sep-16 12:13 101 5 gusting 8 25.0
2019-Sep-16 12:04 093 6 gusting 11 25.0
2019-Sep-16 11:55 093 6 gusting 12 24.4
2019-Sep-16 11:46 096 6 gusting 12 25.0
2019-Sep-16 11:37 092 6 gusting 12 25.0
2019-Sep-16 11:28 092 6 gusting 12 25.0
2019-Sep-16 11:19 094 5 gusting 13 24.4
2019-Sep-16 11:10 090 5 gusting 14 25.0
2019-Sep-16 11:01 106 5 gusting 9 25.6
2019-Sep-16 10:52 109 5 gusting 9 25.0
2019-Sep-16 10:43 092 6 gusting 12 25.6
2019-Sep-16 10:34 107 6 gusting 12 25.0
2019-Sep-16 10:25 111 6 gusting 13 25.6
2019-Sep-16 10:16 088 5 gusting 13 25.6
2019-Sep-16 10:07 103 6 gusting 9 26.1
2019-Sep-16 09:58 091 6 gusting 11 26.1
2019-Sep-16 09:49 099 3 gusting 11 25.6
2019-Sep-16 09:40 051 3 gusting 6 25.6
2019-Sep-16 09:31 064 4 gusting 6 25.6
2019-Sep-16 09:22 060 3 gusting 9 25.0
2019-Sep-16 09:13 056 2 gusting 6 25.0
2019-Sep-16 09:04 045 3 gusting 7 25.0
2019-Sep-16 08:55 041 2 gusting 8 24.4
2019-Sep-16 08:46 071 2 gusting 6 24.4
2019-Sep-16 08:37 062 4 gusting 8 24.4
2019-Sep-16 08:28 052 3 gusting 7 24.4
2019-Sep-16 08:19 069 4 gusting 11 24.4
2019-Sep-16 08:10 059 4 gusting 11 24.4
2019-Sep-16 08:01 074 4 gusting 7 25.0
2019-Sep-16 07:52 059 4 gusting 8 25.0
2019-Sep-16 07:43 048 2 gusting 7 25.0
2019-Sep-16 07:34 039 2 gusting 6 25.0
2019-Sep-16 07:25 042 3 gusting 7 25.0
2019-Sep-16 07:16 023 2 gusting 6 24.4
2019-Sep-16 07:07 018 3 gusting 6 24.4
2019-Sep-16 06:58 017 3 gusting 6 24.4
2019-Sep-16 06:49 017 2 gusting 7 24.4
2019-Sep-16 06:40 322 2 gusting 6 23.9
2019-Sep-16 06:31 331 3 gusting 6 23.9
2019-Sep-16 06:22 342 3 gusting 6 23.9
2019-Sep-16 06:13 342 2 gusting 6 23.9
2019-Sep-16 06:04 336 3 gusting 6 23.3
2019-Sep-16 05:55 325 3 gusting 6 23.3
2019-Sep-16 05:46 324 3 gusting 6 23.3
2019-Sep-16 05:37 324 3 gusting 6 22.8
2019-Sep-16 05:28 320 4 gusting 6 22.8
2019-Sep-16 05:19 315 4 gusting 7 22.8
2019-Sep-16 05:10 318 4 gusting 6 22.8
2019-Sep-16 05:01 318 4 gusting 7 22.8
2019-Sep-16 04:52 323 3 gusting 7 22.8
2019-Sep-16 04:43 325 4 gusting 7 22.2
2019-Sep-16 04:34 318 4 gusting 7 22.2
2019-Sep-16 04:25 314 4 gusting 7 22.2
2019-Sep-16 04:16 322 5 gusting 8 22.2
2019-Sep-16 04:07 315 6 gusting 9 22.2
2019-Sep-16 03:58 317 4 gusting 9 22.2
2019-Sep-16 03:49 327 3 gusting 6 22.2
2019-Sep-16 03:40 344 3 gusting 8 22.2
2019-Sep-16 03:31 352 3 gusting 6 22.2
2019-Sep-16 03:22 333 4 gusting 6 22.2
2019-Sep-16 03:13 319 5 gusting 8 22.2
2019-Sep-16 03:04 312 6 gusting 9 22.2
2019-Sep-16 02:55 311 3 gusting 8 22.2
2019-Sep-16 02:46 318 5 gusting 7 22.2
2019-Sep-16 02:37 314 4 gusting 9 22.2
2019-Sep-16 02:28 326 3 gusting 7 22.2
2019-Sep-16 02:19 328 3 gusting 7 22.2
2019-Sep-16 02:10 343 2 gusting 6 22.2
2019-Sep-16 02:01 343 1 gusting 5 22.2
2019-Sep-16 01:52 336 2 gusting 5 22.2
2019-Sep-16 01:43 327 3 gusting 6 22.2
2019-Sep-16 01:34 326 2 gusting 5 22.2
2019-Sep-16 01:25 324 3 gusting 5 22.2
2019-Sep-16 01:16 328 3 gusting 6 22.8
2019-Sep-16 01:07 338 2 gusting 6 22.8
2019-Sep-16 00:58 328 2 gusting 6 22.8
2019-Sep-16 00:49 337 2 gusting 5 22.8
2019-Sep-16 00:40 342 1 gusting 6 23.3
2019-Sep-16 00:31 350 2 gusting 6 23.3
2019-Sep-16 00:22 355 1 gusting 5 23.3
2019-Sep-16 00:13 355 2 gusting 4 23.3
2019-Sep-16 00:04 353 3 gusting 6 23.3
2019-Sep-15 23:55 344 3 gusting 6 23.9
2019-Sep-15 23:46 339 2 gusting 5 23.3
2019-Sep-15 23:37 340 2 gusting 6 23.3
2019-Sep-15 23:28 342 2 gusting 6 23.3
2019-Sep-15 23:19 343 2 gusting 6 23.3
2019-Sep-15 23:10 332 3 gusting 6 23.3
2019-Sep-15 23:01 342 3 gusting 6 23.3
2019-Sep-15 22:52 339 3 gusting 6 23.3
2019-Sep-15 22:43 338 2 gusting 5 23.3
2019-Sep-15 22:34 320 2 gusting 5 23.3
2019-Sep-15 22:25 325 3 gusting 5 23.3
2019-Sep-15 22:16 322 3 gusting 7 23.3
2019-Sep-15 22:07 324 4 gusting 7 23.3
2019-Sep-15 21:58 320 2 gusting 7 23.3
2019-Sep-15 21:49 328 2 gusting 6 23.3
2019-Sep-15 21:40 342 2 gusting 7 23.3
2019-Sep-15 21:31 321 2 gusting 6 23.3
2019-Sep-15 21:22 331 1 gusting 7 23.3
2019-Sep-15 21:13 325 2 gusting 4 23.3
2019-Sep-15 21:04 332 2 gusting 6 23.3
2019-Sep-15 20:55 335 2 gusting 7 23.3
2019-Sep-15 20:46 342 2 gusting 5 23.3
2019-Sep-15 20:37 344 2 gusting 4 23.3
2019-Sep-15 20:28 346 1 gusting 4 23.3
2019-Sep-15 20:19 351 1 gusting 5 23.3
2019-Sep-15 20:10 351 2 gusting 4 23.3
2019-Sep-15 20:01 349 2 gusting 5 23.3
2019-Sep-15 19:52 350 3 gusting 5 23.3
2019-Sep-15 19:43 356 2 gusting 6 23.3
2019-Sep-15 19:34 002 2 gusting 4 23.3
2019-Sep-15 19:25 006 3 gusting 5 23.3
2019-Sep-15 19:16 015 2 gusting 5 23.3
2019-Sep-15 19:07 061 2 gusting 5 23.9
2019-Sep-15 18:58 069 2 gusting 6 23.9
2019-Sep-15 18:49 066 3 gusting 7 23.9
2019-Sep-15 18:40 077 2 gusting 7 23.9
2019-Sep-15 18:31 075 4 gusting 8 23.9
2019-Sep-15 18:22 062 4 gusting 10 23.9
2019-Sep-15 18:13 065 6 gusting 8 23.9
2019-Sep-15 18:04 065 6 gusting 11 24.4
2019-Sep-15 17:55 079 4 gusting 10 24.4
2019-Sep-15 17:46 071 5 gusting 9 24.4
2019-Sep-15 17:37 068 6 gusting 9 24.4
2019-Sep-15 17:28 077 9 gusting 13 24.4
2019-Sep-15 17:19 061 9 gusting 18 24.4
2019-Sep-15 17:10 060 7 gusting 18 24.4
2019-Sep-15 17:01 063 6 gusting 13 25.0
2019-Sep-15 16:52 068 7 gusting 12 25.0
2019-Sep-15 16:43 063 7 gusting 14 25.0
2019-Sep-15 16:34 066 7 gusting 13 25.6
2019-Sep-15 16:25 066 7 gusting 11 25.6
2019-Sep-15 16:16 069 6 gusting 14 25.6
2019-Sep-15 16:07 070 6 gusting 13 26.1
2019-Sep-15 15:58 074 6 gusting 11 25.6
2019-Sep-15 15:49 090 6 gusting 17 25.6
2019-Sep-15 15:40 066 7 gusting 14 25.6
2019-Sep-15 15:31 081 7 gusting 14 25.6
2019-Sep-15 15:22 091 8 gusting 15 26.1
2019-Sep-15 15:13 079 8 gusting 14 25.6
2019-Sep-15 15:04 065 8 gusting 17 25.6
2019-Sep-15 14:55 068 9 gusting 19 26.1
2019-Sep-15 14:46 066 8 gusting 16 26.1
2019-Sep-15 14:37 070 9 gusting 17 26.1
2019-Sep-15 14:28 100 10 gusting 15 26.1
2019-Sep-15 14:19 093 9 gusting 19 25.6
2019-Sep-15 14:10 094 7 gusting 14 25.6
2019-Sep-15 14:01 097 6 gusting 14 26.1
2019-Sep-15 13:52 088 8 gusting 13 26.1
2019-Sep-15 13:43 091 7 gusting 14 26.1
2019-Sep-15 13:34 066 7 gusting 18 26.1
2019-Sep-15 13:25 082 10 gusting 18 26.1
2019-Sep-15 13:16 096 9 gusting 19 26.1
2019-Sep-15 13:07 077 8 gusting 15 26.1
2019-Sep-15 12:58 082 9 gusting 15 26.1
2019-Sep-15 12:49 083 9 gusting 17 25.6
2019-Sep-15 12:40 079 9 gusting 15 26.1
2019-Sep-15 12:31 084 8 gusting 20 26.1
2019-Sep-15 12:22 094 7 gusting 15 26.7
2019-Sep-15 12:13 083 8 gusting 16 26.7
2019-Sep-15 12:04 094 9 gusting 16 26.7
2019-Sep-15 11:55 087 8 gusting 16 26.1
2019-Sep-15 11:46 076 9 gusting 16 26.7
2019-Sep-15 11:37 090 8 gusting 15 26.1
2019-Sep-15 11:28 091 7 gusting 17 26.7
2019-Sep-15 11:19 074 7 gusting 13 26.1
2019-Sep-15 11:10 083 9 gusting 15 26.1
2019-Sep-15 11:01 073 9 gusting 17 26.1
2019-Sep-15 10:52 083 8 gusting 14 26.7
2019-Sep-15 10:43 080 8 gusting 15 26.7
2019-Sep-15 10:34 090 8 gusting 15 26.7
2019-Sep-15 10:25 065 7 gusting 13 26.7
2019-Sep-15 10:16 058 6 gusting 13 26.7
2019-Sep-15 10:07 070 7 gusting 12 26.7
2019-Sep-15 09:58 066 9 gusting 15 26.1
2019-Sep-15 09:49 061 10 gusting 15 26.1
2019-Sep-15 09:40 062 7 gusting 19 25.6
2019-Sep-15 09:31 059 8 gusting 13 25.6
2019-Sep-15 09:22 066 8 gusting 16 25.0
2019-Sep-15 09:13 064 6 gusting 16 25.0
2019-Sep-15 09:04 066 7 gusting 12 25.0
2019-Sep-15 08:55 065 7 gusting 14 25.0
2019-Sep-15 08:46 064 7 gusting 15 24.4
2019-Sep-15 08:37 062 6 gusting 13 24.4
2019-Sep-15 08:28 054 6 gusting 13 24.4
2019-Sep-15 08:19 041 4 gusting 11 24.4
2019-Sep-15 08:10 047 3 gusting 8 24.4
2019-Sep-15 08:01 021 4 gusting 9 24.4
2019-Sep-15 07:52 020 4 gusting 9 23.9
2019-Sep-15 07:43 011 5 gusting 9 23.3
2019-Sep-15 07:34 357 4 gusting 8 23.3
2019-Sep-15 07:25 023 4 gusting 9 23.3
2019-Sep-15 07:16 043 3 gusting 10 22.8
2019-Sep-15 07:07 017 3 gusting 7 23.3
2019-Sep-15 06:58 359 3 gusting 6 22.8
2019-Sep-15 06:49 003 2 gusting 6 22.2
2019-Sep-15 06:40 008 3 gusting 6 22.2
2019-Sep-15 06:31 016 3 gusting 8 22.2
2019-Sep-15 06:22 356 3 gusting 7 22.2
2019-Sep-15 06:13 004 4 gusting 7 22.2
2019-Sep-15 06:04 003 4 gusting 7 22.2
2019-Sep-15 05:55 003 2 gusting 6 22.2
2019-Sep-15 05:46 345 1 gusting 5 21.7
2019-Sep-15 05:37 344 3 gusting 6 21.7
2019-Sep-15 05:28 350 2 gusting 6 21.7
2019-Sep-15 05:19 349 2 gusting 6 22.2
2019-Sep-15 05:10 353 2 gusting 5 22.2
2019-Sep-15 05:01 347 3 gusting 6 22.8
2019-Sep-15 04:52 333 2 gusting 6 22.8
2019-Sep-15 04:43 327 2 gusting 4 22.8
2019-Sep-15 04:34 327 2 gusting 3 22.8
2019-Sep-15 04:25 328 3 gusting 5 22.8
2019-Sep-15 04:16 338 3 gusting 5 22.8
2019-Sep-15 04:07 337 3 gusting 6 22.8
2019-Sep-15 03:58 335 2 gusting 8 22.8
2019-Sep-15 03:49 326 3 gusting 6 22.2
2019-Sep-15 03:40 336 3 gusting 6 22.8
2019-Sep-15 03:31 329 3 gusting 6 22.2
2019-Sep-15 03:22 326 4 gusting 8 22.2
2019-Sep-15 03:13 331 4 gusting 8 22.2
2019-Sep-15 03:04 342 3 gusting 7 22.2
2019-Sep-15 02:55 343 2 gusting 6 22.2
2019-Sep-15 02:46 327 4 gusting 6 22.2
2019-Sep-15 02:37 323 3 gusting 6 22.2
2019-Sep-15 02:28 329 3 gusting 6 22.2
2019-Sep-15 02:19 325 2 gusting 6 22.8
2019-Sep-15 02:10 355 4 gusting 5 23.3
2019-Sep-15 02:01 007 6 gusting 12 23.3
2019-Sep-15 01:52 010 6 gusting 13 23.3
2019-Sep-15 01:43 015 6 gusting 11 22.8
2019-Sep-15 01:34 025 5 gusting 11 22.8
2019-Sep-15 01:25 023 4 gusting 11 22.8
2019-Sep-15 01:16 030 3 gusting 7 22.8
2019-Sep-15 01:07 029 3 gusting 8 22.8
2019-Sep-15 00:58 034 3 gusting 7 22.8
2019-Sep-15 00:49 030 2 gusting 6 22.8
2019-Sep-15 00:40 030 3 gusting 6 22.8
2019-Sep-15 00:31 025 3 gusting 7 22.2
2019-Sep-15 00:22 048 3 gusting 7 22.8
2019-Sep-15 00:13 054 2 gusting 7 22.8
2019-Sep-15 00:04 035 3 gusting 6 22.8
2019-Sep-14 23:55 015 3 gusting 6 22.8
2019-Sep-14 23:46 012 3 gusting 5 22.8
2019-Sep-14 23:37 010 3 gusting 5 22.8
2019-Sep-14 23:28 040 2 gusting 6 22.8
2019-Sep-14 23:19 061 2 gusting 6 23.3
2019-Sep-14 23:10 046 1 gusting 6 23.3
2019-Sep-14 23:01 062 1 gusting 3 23.3
2019-Sep-14 22:52 065 3 gusting 6 23.3
2019-Sep-14 22:43 056 4 gusting 7 23.3
2019-Sep-14 22:34 050 3 gusting 7 23.3
2019-Sep-14 22:25 026 3 gusting 7 23.3
2019-Sep-14 22:16 042 4 gusting 10 23.3
2019-Sep-14 22:07 024 5 gusting 11 23.3